カタログに戻る

STARLINK-4674

運用中通信VLEO
NORAD 53591·PAYLOAD·🇺🇸 United States

打ち上げ Aug 28, 2022 から Cape Canaveral Space Force Station

Loading…

次のパス (今後24時間)

TLE

最新Source: CelesTrak SupGP

元期: Sep 15, 2026, 01:36 UTC

1 53591C 22104D   26258.06715278  .00035470  00000+0  10147-2 0  2582
2 53591  53.1564 101.4014 0001178  85.6288 312.5048 15.35384828    15

AllMySatでSTARLINK-4674をリアルタイム追跡

Download on the App Store